This is the latest recevied weather packets stored in our database for station/object KC1TEM-13. If no packets are shown the sender has not sent any weather packets the latest 10 day(s).
| Time | Temp. | Humidity | Pressure | Rain* | Wind** | Luminosity | Snow |
|---|---|---|---|---|---|---|---|
| 1777462105 | 7.22° C | 90% | 1019 hPa | 0 mm | - | 54 W/m² | - |
| 1777461802 | 7.22° C | 89% | 1019 hPa | 0 mm | - | 50 W/m² | - |
| 1777461498 | 7.22° C | 89% | 1018.8 hPa | 0 mm | - | 52 W/m² | - |
| 1777461194 | 7.22° C | 89% | 1018.9 hPa | 0 mm | - | 43 W/m² | - |
| 1777460890 | 7.22° C | 88% | 1018.9 hPa | 0 mm | - | 38 W/m² | - |
| 1777460585 | 7.22° C | 87% | 1018.8 hPa | 0 mm | - | 32 W/m² | - |
| 1777460281 | 7.22° C | 87% | 1019.1 hPa | 0 mm | - | 28 W/m² | - |
| 1777459979 | 7.22° C | 87% | 1019.1 hPa | 0 mm | - | 26 W/m² | - |
| 1777459675 | 7.22° C | 87% | 1019.1 hPa | 0 mm | - | 20 W/m² | - |
| 1777459371 | 7.22° C | 87% | 1018.8 hPa | 0 mm | - | 18 W/m² | - |
| 1777459070 | 7.22° C | 87% | 1018.9 hPa | 0 mm | - | 16 W/m² | - |
| 1777458767 | 7.22° C | 87% | 1018.7 hPa | 0 mm | - | 16 W/m² | - |
| 1777458463 | 7.22° C | 86% | 1018.7 hPa | 0 mm | - | 13 W/m² | - |
| 1777458160 | 7.22° C | 85% | 1018.4 hPa | 0 mm | - | 11 W/m² | - |
| 1777457855 | 7.22° C | 85% | 1018.4 hPa | 0 mm | - | 10 W/m² | - |
| 1777457551 | 7.22° C | 85% | 1018.5 hPa | 0 mm | - | 10 W/m² | - |
| 1777457246 | 7.22° C | 84% | 1018.3 hPa | 0 mm | - | 8 W/m² | - |
| 1777456942 | 7.22° C | 84% | 1018 hPa | 0 mm | - | 6 W/m² | - |
| 1777456638 | 7.22° C | 83% | 1018 hPa | 0 mm | - | 4 W/m² | - |
| 1777456333 | 7.22° C | 83% | 1018 hPa | 0 mm | - | 3 W/m² | - |
| 1777456029 | 7.22° C | 82% | 1018.4 hPa | 0 mm | - | 2 W/m² | - |
| 1777455726 | 7.22° C | 82% | 1018.2 hPa | 0 mm | - | 1 W/m² | - |
| 1777455422 | 7.22° C | 82% | 1017.9 hPa | 0 mm | - | 1 W/m² | - |
| 1777455119 | 7.22° C | 80% | 1018.1 hPa | 0 mm | - | 0 W/m² | - |
| 1777454816 | 7.22° C | 80% | 1018.2 hPa | 0 mm | - | 0 W/m² | - |
* Rain latest hour (hover to see other rain measurements)
** Current wind speed in m/s (hover to see current wind gust speed)